Regional Weather Roundup
Issued by NWS Cleveland, OH

Home | Current Version | Previous Version | Text Only | Print | Product List | Glossary Off
Versions: 1 2 3 4 5 6 7 8 9 10 11 12 13 14 15 16 17 18 19 20 21 22 23 24 25 26 27 28 29 30 31 32 33 34 35 36 37 38 39 40 41 42 43 44 45 46 47 48 49 50

000
ASUS41 KCLE 251210
RWRCLE
OHIO REGIONAL WEATHER ROUNDUP
NATIONAL WEATHER SERVICE WILMINGTON, OH
800 AM EDT SUN JUN 25 2017

NOTE: "FAIR" INDICATES FEW OR NO CLOUDS BELOW 12,000 FEET WITH NO
SIGNIFICANT WEATHER AND/OR OBSTRUCTIONS TO VISIBILITY.

OHZ001>008-015>018-024>027-034-035-043-044-251300-
   NORTHWEST OHIO

CITY           SKY/WX    TMP DP  RH WIND       PRES   REMARKS
DEFIANCE       FAIR      60  47  61 VRB6G17   30.04R
FINDLAY        FAIR      63  48  58 SW12      30.04F
TOLEDO EXPRESS FAIR      60  50  69 SW8       30.01F
TOLEDO EXEC    FAIR      61  52  72 S8        30.03S
LIMA           PTSUNNY   60  48  64 SW9       30.07S
$$

OHZ009>014-019>023-028>033-038-089-251300-
   NORTHEAST OHIO

CITY           SKY/WX    TMP DP  RH WIND       PRES   REMARKS
CLE-HOPKINS    FAIR      65  53  65 SW9       30.06R
CLE-LAKEFRONT  FAIR      66  50  56 SW13      30.02R
CUY CO. ARPT   MOSUNNY   66  54  63 SW9       30.04R
LORAIN-ELYRIA  FAIR      62  49  62 SW12      30.05R
ASHTABULA      PTSUNNY   61  56  83 S5        30.04R
AKRON-CANTON   FAIR      63  53  70 W8        30.07R
WOOSTER        FAIR      62  54  74 SW8       30.08R
MANSFIELD      FAIR      60  53  77 SW6       30.08R
YOUNGSTOWN     FAIR      61  56  83 SW6       30.05R
$$

OHZ042-051>053-060>062-070>072-077>081-251300-
  SOUTHWEST OHIO

CITY           SKY/WX    TMP DP  RH WIND       PRES   REMARKS
CINC-COVINGTON FAIR      61  53  75 SW5       30.16R
CINC-LUNKEN    FAIR      60  57  89 CALM      30.16R
HAMILTON       FAIR      61  56  83 CALM      30.15S
DAYTON         FAIR      61  49  64 SW9       30.13R
WRIGHT-PAT AFB SUNNY     61  54  77 SW8       30.12R
DAYTON GENERAL FAIR      59  52  77 S3        30.13R
WILMINGTON     FAIR      61  52  72 W9        30.14R
$$

OHZ036-037-039>041-045>050-054>059-063>069-073>076-082>088-251300-
  CENTRAL AND SOUTHEAST OHIO

CITY           SKY/WX    TMP DP  RH WIND       PRES   REMARKS
COLUMBUS       FAIR      62  51  67 SW6       30.11R
OSU AIRPORT    FAIR      61  52  72 W6        30.11R
BOLTON FIELD   SUNNY     61  52  72 W7        30.12R
RICKENBACK AFB FAIR      59  54  82 SW5       30.12R
NEWARK         FAIR      62  52  69 W6        30.10R
MARION         FAIR      61  49  64 SW7       30.09R
LANCASTER      FAIR      61  52  72 VRB5      30.12R
ZANESVILLE     FAIR      61  53  75 W7        30.11R
NEW PHILLY     FAIR      62  57  83 S5        30.08R
$$



USA.gov is the U.S. government's official web portal to all federal, state and local government web resources and services.